iso_date,epoch_date,Year,Hour,Min,DOY,POS_DOY,Lat,Lon,BP,Ts,Ta,has_bp,has_ts,has_ta,BuoyID,Buoy_Type,Buoy_Owner,Logistics,Hemisphere
2019-10-07T14:30:02Z,1570458603,2019,14,30,280.6042,280.6042,85.01604,135.63446,-999.00,-0.56,-999.0,no,yes,no,300234065980580,GPS,TUT,MOSAiC,North
2019-10-07T15:29:57Z,1570462197,2019,15,30,280.6458,280.6458,85.01023,135.75521,-999.00,-0.58,-999.0,no,yes,no,300234065980580,GPS,TUT,MOSAiC,North
2019-10-07T16:30:00Z,1570465800,2019,16,30,280.6875,280.6875,85.00693,135.81851,-999.00,-0.6,-999.0,no,yes,no,300234065980580,GPS,TUT,MOSAiC,North
2019-10-07T17:30:02Z,1570469403,2019,17,30,280.7292,280.7292,85.00298,135.88078,-999.00,-0.61,-999.0,no,yes,no,300234065980580,GPS,TUT,MOSAiC,North
2019-10-07T18:29:57Z,1570472997,2019,18,30,280.7708,280.7708,-85.00298,135.88078,-999.00,-0.62,-999.0,no,yes,no,300234065980580,GPS,TUT,MOSAiC,North
2019-10-07T19:30:00Z,1570476600,2019,19,30,280.8125,280.8125,84.99489,135.99919,-999.00,-0.63,-999.0,no,yes,no,300234065980580,GPS,TUT,MOSAiC,North
2019-10-07T20:30:02Z,1570480203,2019,20,30,280.8542,280.8542,84.99077,136.05992,-999.00,-0.63,-999.0,no,yes,no,300234065980580,GPS,TUT,MOSAiC,North
2019-10-07T21:29:57Z,1570483797,2019,21,30,280.8958,280.8958,84.98707,136.12093,-999.00,-0.61,-999.0,no,yes,no,300234065980580,GPS,TUT,MOSAiC,North
2019-10-07T22:30:00Z,1570487400,2019,22,30,280.9375,280.9375,84.98707,136.12095,-999.00,-0.61,-999.0,no,yes,no,300234065980580,GPS,TUT,MOSAiC,North
2019-10-07T23:30:02Z,1570491003,2019,23,30,280.9792,280.9792,84.98078,136.26862,-999.00,-0.59,-999.0,no,yes,no,300234065980580,GPS,TUT,MOSAiC,North
2019-10-08T00:29:57Z,1570494597,2019,0,30,281.0208,281.0208,84.98077,136.26867,-999.00,-0.57,-999.0,no,yes,no,300234065980580,GPS,TUT,MOSAiC,North
2019-10-08T01:30:00Z,1570498200,2019,1,30,281.0625,281.0625,84.97313,136.45979,-999.00,-0.53,-999.0,no,yes,no,300234065980580,GPS,TUT,MOSAiC,North
2019-10-08T02:30:02Z,1570501803,2019,2,30,281.1042,281.1042,84.97313,136.45983,-999.00,-0.47,-999.0,no,yes,no,300234065980580,GPS,TUT,MOSAiC,North
2019-10-08T03:29:57Z,1570505397,2019,3,30,281.1458,281.1458,84.96445,136.66181,-999.00,-0.42,-999.0,no,yes,no,300234065980580,GPS,TUT,MOSAiC,North
2019-10-08T04:30:00Z,1570509000,2019,4,30,281.1875,281.1875,84.96445,136.66184,-999.00,-0.38,-999.0,no,yes,no,300234065980580,GPS,TUT,MOSAiC,North
2019-10-08T05:30:02Z,1570512603,2019,5,30,281.2292,281.2292,84.95403,136.85436,-999.00,-0.35,-999.0,no,yes,no,300234065980580,GPS,TUT,MOSAiC,North
2019-10-08T06:29:57Z,1570516197,2019,6,30,281.2708,281.2708,84.95403,136.85439,-999.00,-0.32,-999.0,no,yes,no,300234065980580,GPS,TUT,MOSAiC,North
2019-10-08T07:30:00Z,1570519800,2019,7,30,281.3125,281.3125,84.94234,137.01457,-999.00,-0.29,-999.0,no,yes,no,300234065980580,GPS,TUT,MOSAiC,North
2019-10-08T08:30:02Z,1570523403,2019,8,30,281.3542,281.3542,84.94234,137.01458,-999.00,-0.27,-999.0,no,yes,no,300234065980580,GPS,TUT,MOSAiC,North
2019-10-08T09:29:57Z,1570526997,2019,9,30,281.3958,281.3958,84.92989,137.1232,-999.00,-0.24,-999.0,no,yes,no,300234065980580,GPS,TUT,MOSAiC,North
2019-10-08T10:30:00Z,1570530600,2019,10,30,281.4375,281.4375,84.92988,137.12323,-999.00,-0.2,-999.0,no,yes,no,300234065980580,GPS,TUT,MOSAiC,North
2019-10-08T11:30:02Z,1570534203,2019,11,30,281.4792,281.4792,84.92988,137.12323,-999.00,-0.22,-999.0,no,yes,no,300234065980580,GPS,TUT,MOSAiC,North
2019-10-08T12:28:56Z,1570537737,2019,12,29,281.5201,281.5201,84.91194,137.1778,-999.00,-0.21,-999.0,no,yes,no,300234065980580,GPS,TUT,MOSAiC,North
2019-10-08T13:30:00Z,1570541400,2019,13,30,281.5625,281.5625,84.91188,137.17789,-999.00,-0.2,-999.0,no,yes,no,300234065980580,GPS,TUT,MOSAiC,North
2019-10-08T14:30:02Z,1570545003,2019,14,30,281.6042,281.6042,84.90609,137.17517,-999.00,-0.28,-999.0,no,yes,no,300234065980580,GPS,TUT,MOSAiC,North
2019-10-08T15:29:57Z,1570548597,2019,15,30,281.6458,281.6458,84.89648,137.1621,-999.00,-0.31,-999.0,no,yes,no,300234065980580,GPS,TUT,MOSAiC,North
2019-10-08T16:30:00Z,1570552200,2019,16,30,281.6875,281.6875,84.89648,137.16209,-999.00,-0.36,-999.0,no,yes,no,300234065980580,GPS,TUT,MOSAiC,North
2019-10-08T17:30:02Z,1570555803,2019,17,30,281.7292,281.7292,84.88908,137.15208,-999.00,-0.42,-999.0,no,yes,no,300234065980580,GPS,TUT,MOSAiC,North
2019-10-08T18:29:57Z,1570559397,2019,18,30,281.7708,281.7708,84.88908,137.15208,-999.00,-0.39,-999.0,no,yes,no,300234065980580,GPS,TUT,MOSAiC,North
2019-10-08T19:30:00Z,1570563000,2019,19,30,281.8125,281.8125,84.8823,137.14897,-999.00,-0.44,-999.0,no,yes,no,300234065980580,GPS,TUT,MOSAiC,North
2019-10-08T20:30:02Z,1570566603,2019,20,30,281.8542,281.8542,84.87839,137.144,-999.00,-0.45,-999.0,no,yes,no,300234065980580,GPS,TUT,MOSAiC,North
2019-10-08T21:29:57Z,1570570197,2019,21,30,281.8958,281.8958,84.87838,137.144,-999.00,-0.45,-999.0,no,yes,no,300234065980580,GPS,TUT,MOSAiC,North
2019-10-08T22:30:00Z,1570573800,2019,22,30,281.9375,281.9375,84.87108,137.11744,-999.00,-0.45,-999.0,no,yes,no,300234065980580,GPS,TUT,MOSAiC,North
2019-10-08T23:30:02Z,1570577403,2019,23,30,281.9792,281.9792,84.87108,137.11744,-999.00,-0.44,-999.0,no,yes,no,300234065980580,GPS,TUT,MOSAiC,North
2019-10-09T00:29:57Z,1570580997,2019,0,30,282.0208,282.0208,84.8654,137.06895,-999.00,-0.46,-999.0,no,yes,no,300234065980580,GPS,TUT,MOSAiC,North
2019-10-09T01:30:00Z,1570584600,2019,1,30,282.0625,282.0625,84.8654,137.06894,-999.00,-0.47,-999.0,no,yes,no,300234065980580,GPS,TUT,MOSAiC,North
2019-10-09T02:30:02Z,1570588203,2019,2,30,282.1042,282.1042,84.86252,137.01283,-999.00,-0.47,-999.0,no,yes,no,300234065980580,GPS,TUT,MOSAiC,North
2019-10-09T03:29:57Z,1570591797,2019,3,30,282.1458,282.1458,84.86252,137.0128,-999.00,-0.49,-999.0,no,yes,no,300234065980580,GPS,TUT,MOSAiC,North
2019-10-09T04:30:00Z,1570595400,2019,4,30,282.1875,282.1875,84.86186,136.96707,-999.00,-0.59,-999.0,no,yes,no,300234065980580,GPS,TUT,MOSAiC,North
2019-10-09T05:30:02Z,1570599003,2019,5,30,282.2292,282.2292,84.86186,136.96707,-999.00,-0.52,-999.0,no,yes,no,300234065980580,GPS,TUT,MOSAiC,North
2019-10-09T06:29:57Z,1570602597,2019,6,30,282.2708,282.2708,84.86226,136.94415,-999.00,-0.64,-999.0,no,yes,no,300234065980580,GPS,TUT,MOSAiC,North
2019-10-09T07:30:00Z,1570606200,2019,7,30,282.3125,282.3125,84.86226,136.94415,-999.00,-0.69,-999.0,no,yes,no,300234065980580,GPS,TUT,MOSAiC,North
2019-10-09T08:30:02Z,1570609803,2019,8,30,282.3542,282.3542,84.86104,136.92956,-999.00,-0.72,-999.0,no,yes,no,300234065980580,GPS,TUT,MOSAiC,North
2019-10-09T09:29:57Z,1570613397,2019,9,30,282.3958,282.3958,84.86104,136.92955,-999.00,-0.73,-999.0,no,yes,no,300234065980580,GPS,TUT,MOSAiC,North
2019-10-09T10:30:00Z,1570617000,2019,10,30,282.4375,282.4375,84.85812,136.9068,-999.00,-0.73,-999.0,no,yes,no,300234065980580,GPS,TUT,MOSAiC,North
2019-10-09T11:30:02Z,1570620603,2019,11,30,282.4792,282.4792,84.85812,136.82013,-999.00,-0.73,-999.0,no,yes,no,300234065980580,GPS,TUT,MOSAiC,North
2019-10-09T12:29:57Z,1570624197,2019,12,30,282.5208,282.5208,84.85633,136.87429,-999.00,-0.73,-999.0,no,yes,no,300234065980580,GPS,TUT,MOSAiC,North
2019-10-09T13:30:00Z,1570627800,2019,13,30,282.5625,282.5625,84.85633,136.87429,-999.00,-0.74,-999.0,no,yes,no,300234065980580,GPS,TUT,MOSAiC,North
2019-10-09T14:30:02Z,1570631403,2019,14,30,282.6042,282.6042,84.85562,136.84708,-999.00,-0.74,-999.0,no,yes,no,300234065980580,GPS,TUT,MOSAiC,North
2019-10-09T15:29:57Z,1570634997,2019,15,30,282.6458,282.6458,84.85588,136.83634,-999.00,-0.74,-999.0,no,yes,no,300234065980580,GPS,TUT,MOSAiC,North
2019-10-09T16:30:00Z,1570638600,2019,16,30,282.6875,282.6875,84.85666,136.82866,-999.00,-0.74,-999.0,no,yes,no,300234065980580,GPS,TUT,MOSAiC,North
2019-10-09T17:30:02Z,1570642203,2019,17,30,282.7292,282.7292,84.85775,136.82205,-999.00,-0.76,-999.0,no,yes,no,300234065980580,GPS,TUT,MOSAiC,North
2019-10-09T18:29:57Z,1570645797,2019,18,30,282.7708,282.7708,84.85775,136.82205,-999.00,-0.76,-999.0,no,yes,no,300234065980580,GPS,TUT,MOSAiC,North
2019-10-09T19:30:00Z,1570649400,2019,19,30,282.8125,282.8125,84.86036,136.80603,-999.00,-0.76,-999.0,no,yes,no,300234065980580,GPS,TUT,MOSAiC,North
2019-10-09T19:59:57Z,1570651197,2019,20,0,282.8333,282.8333,84.86224,136.78324,-999.00,-0.78,-999.0,no,yes,no,300234065980580,GPS,TUT,MOSAiC,North
2019-10-09T21:29:57Z,1570656597,2019,21,30,282.8958,282.8958,84.86278,136.77247,-999.00,-0.84,-999.0,no,yes,no,300234065980580,GPS,TUT,MOSAiC,North
2019-10-09T22:30:00Z,1570660200,2019,22,30,282.9375,282.9375,84.86278,136.77247,-999.00,-0.79,-999.0,no,yes,no,300234065980580,GPS,TUT,MOSAiC,North
2019-10-09T23:30:02Z,1570663803,2019,23,30,282.9792,282.9792,84.86484,136.7087,-999.00,-0.88,-999.0,no,yes,no,300234065980580,GPS,TUT,MOSAiC,North
2019-10-10T00:29:57Z,1570667397,2019,0,30,283.0208,283.0208,84.86484,136.70868,-999.00,-0.88,-999.0,no,yes,no,300234065980580,GPS,TUT,MOSAiC,North
2019-10-10T01:30:00Z,1570671000,2019,1,30,283.0625,283.0625,84.86735,136.62203,-999.00,-0.86,-999.0,no,yes,no,300234065980580,GPS,TUT,MOSAiC,North
2019-10-10T02:30:02Z,1570674603,2019,2,30,283.1042,283.1042,84.86735,136.62199,-999.00,-0.83,-999.0,no,yes,no,300234065980580,GPS,TUT,MOSAiC,North
2019-10-10T03:29:57Z,1570678197,2019,3,30,283.1458,283.1458,84.87094,136.52605,-999.00,-0.79,-999.0,no,yes,no,300234065980580,GPS,TUT,MOSAiC,North
2019-10-10T04:00:02Z,1570680003,2019,4,0,283.1667,283.1667,84.87409,136.45624,-999.00,-0.72,-999.0,no,yes,no,300234065980580,GPS,TUT,MOSAiC,North
2019-10-10T05:30:02Z,1570685403,2019,5,30,283.2292,283.2292,84.87506,136.43555,-999.00,-0.71,-999.0,no,yes,no,300234065980580,GPS,TUT,MOSAiC,North
2019-10-10T06:29:57Z,1570688997,2019,6,30,283.2708,283.2708,84.87655,136.39812,-999.00,-0.72,-999.0,no,yes,no,300234065980580,GPS,TUT,MOSAiC,North
2019-10-10T07:30:00Z,1570692600,2019,7,30,283.3125,283.3125,84.87723,136.36608,-999.00,-0.74,-999.0,no,yes,no,300234065980580,GPS,TUT,MOSAiC,North
2019-10-10T07:59:57Z,1570694397,2019,8,0,283.3333,283.3333,84.87683,136.33082,-999.00,-0.82,-999.0,no,yes,no,300234065980580,GPS,TUT,MOSAiC,North
2019-10-10T09:29:57Z,1570699797,2019,9,30,283.3958,283.3958,84.87635,136.31971,-999.00,-0.89,-999.0,no,yes,no,300234065980580,GPS,TUT,MOSAiC,North
2019-10-10T10:30:00Z,1570703400,2019,10,30,283.4375,283.4375,84.87635,136.31971,-999.00,-0.84,-999.0,no,yes,no,300234065980580,GPS,TUT,MOSAiC,North
2019-10-10T11:30:02Z,1570707003,2019,11,30,283.4792,283.4792,84.87352,136.26902,-999.00,-0.88,-999.0,no,yes,no,300234065980580,GPS,TUT,MOSAiC,North
2019-10-10T12:29:57Z,1570710597,2019,12,30,283.5208,283.5208,84.87057,136.21613,-999.00,-0.88,-999.0,no,yes,no,300234065980580,GPS,TUT,MOSAiC,North
2019-10-10T13:30:00Z,1570714200,2019,13,30,283.5625,283.5625,84.87352,136.269,-999.00,-0.88,-999.0,no,yes,no,300234065980580,GPS,TUT,MOSAiC,North
2019-10-10T14:30:02Z,1570717803,2019,14,30,283.6042,283.6042,84.8688,136.18604,-999.00,-0.88,-999.0,no,yes,no,300234065980580,GPS,TUT,MOSAiC,North
2019-10-10T15:29:57Z,1570721397,2019,15,30,283.6458,283.6458,84.86831,136.1799,-999.00,-0.9,-999.0,no,yes,no,300234065980580,GPS,TUT,MOSAiC,North
2019-10-10T16:30:00Z,1570725000,2019,16,30,283.6875,283.6875,84.86747,136.1758,-999.00,-0.96,-999.0,no,yes,no,300234065980580,GPS,TUT,MOSAiC,North
2019-10-10T17:30:02Z,1570728603,2019,17,30,283.7292,283.7292,84.86662,136.17975,-999.00,-1.01,-999.0,no,yes,no,300234065980580,GPS,TUT,MOSAiC,North
2019-10-10T18:29:57Z,1570732197,2019,18,30,283.7708,283.7708,84.86486,136.20548,-999.00,-1.04,-999.0,no,yes,no,300234065980580,GPS,TUT,MOSAiC,North
2019-10-10T19:30:00Z,1570735800,2019,19,30,283.8125,283.8125,84.86402,136.219,-999.00,-1.02,-999.0,no,yes,no,300234065980580,GPS,TUT,MOSAiC,North
2019-10-10T20:30:02Z,1570739403,2019,20,30,283.8542,283.8542,84.86188,136.25043,-999.00,-0.99,-999.0,no,yes,no,300234065980580,GPS,TUT,MOSAiC,North
2019-10-10T21:29:57Z,1570742997,2019,21,30,283.8958,283.8958,84.86188,136.25046,-999.00,-0.96,-999.0,no,yes,no,300234065980580,GPS,TUT,MOSAiC,North
2019-10-10T22:30:00Z,1570746600,2019,22,30,283.9375,283.9375,84.85563,136.32184,-999.00,-0.94,-999.0,no,yes,no,300234065980580,GPS,TUT,MOSAiC,North
2019-10-10T23:30:02Z,1570750203,2019,23,30,283.9792,283.9792,84.8515,136.35868,-999.00,-0.93,-999.0,no,yes,no,300234065980580,GPS,TUT,MOSAiC,North
2019-10-11T00:29:57Z,1570753797,2019,0,30,284.0208,284.0208,84.8515,136.35869,-999.00,-0.93,-999.0,no,yes,no,300234065980580,GPS,TUT,MOSAiC,North
2019-10-11T01:30:00Z,1570757400,2019,1,30,284.0625,284.0625,84.84237,136.41897,-999.00,-0.94,-999.0,no,yes,no,300234065980580,GPS,TUT,MOSAiC,North
2019-10-11T02:30:02Z,1570761003,2019,2,30,284.1042,284.1042,84.83774,136.44055,-999.00,-0.96,-999.0,no,yes,no,300234065980580,GPS,TUT,MOSAiC,North
2019-10-11T03:29:57Z,1570764597,2019,3,30,284.1458,284.1458,84.83773,136.44056,-999.00,-1.01,-999.0,no,yes,no,300234065980580,GPS,TUT,MOSAiC,North
2019-10-11T04:30:00Z,1570768200,2019,4,30,284.1875,284.1875,84.82935,136.4742,-999.00,-1.04,-999.0,no,yes,no,300234065980580,GPS,TUT,MOSAiC,North
2019-10-11T05:30:02Z,1570771803,2019,5,30,284.2292,284.2292,84.82625,136.49132,-999.00,-1.05,-999.0,no,yes,no,300234065980580,GPS,TUT,MOSAiC,North
2019-10-11T06:29:57Z,1570775397,2019,6,30,284.2708,284.2708,84.82391,136.51173,-999.00,-1.06,-999.0,no,yes,no,300234065980580,GPS,TUT,MOSAiC,North
2019-10-11T07:30:00Z,1570779000,2019,7,30,284.3125,284.3125,84.8204,136.54088,-999.00,-1.05,-999.0,no,yes,no,300234065980580,GPS,TUT,MOSAiC,North
2019-10-11T08:30:02Z,1570782603,2019,8,30,284.3542,284.3542,84.81537,136.57428,-999.00,-1.04,-999.0,no,yes,no,300234065980580,GPS,TUT,MOSAiC,North
2019-10-11T09:29:57Z,1570786197,2019,9,30,284.3958,284.3958,84.80999,136.59811,-999.00,-1.03,-999.0,no,yes,no,300234065980580,GPS,TUT,MOSAiC,North
2019-10-11T10:30:00Z,1570789800,2019,10,30,284.4375,284.4375,84.80998,136.59812,-999.00,-1.04,-999.0,no,yes,no,300234065980580,GPS,TUT,MOSAiC,North
2019-10-11T11:30:02Z,1570793403,2019,11,30,284.4792,284.4792,84.80086,136.61683,-999.00,-1.04,-999.0,no,yes,no,300234065980580,GPS,TUT,MOSAiC,North
2019-10-11T12:29:57Z,1570796997,2019,12,30,284.5208,284.5208,84.80086,136.61683,-999.00,-1.04,-999.0,no,yes,no,300234065980580,GPS,TUT,MOSAiC,North
2019-10-11T13:30:00Z,1570800600,2019,13,30,284.5625,284.5625,84.79462,136.62164,-999.00,-1.02,-999.0,no,yes,no,300234065980580,GPS,TUT,MOSAiC,North
2019-10-11T14:30:02Z,1570804203,2019,14,30,284.6042,284.6042,84.79462,136.62164,-999.00,-1.02,-999.0,no,yes,no,300234065980580,GPS,TUT,MOSAiC,North
2019-10-11T15:29:57Z,1570807797,2019,15,30,284.6458,284.6458,84.79088,136.64271,-999.00,-0.94,-999.0,no,yes,no,300234065980580,GPS,TUT,MOSAiC,North
2019-10-11T16:30:00Z,1570811400,2019,16,30,284.6875,284.6875,84.78949,136.66513,-999.00,-0.92,-999.0,no,yes,no,300234065980580,GPS,TUT,MOSAiC,North
2019-10-11T17:30:02Z,1570815003,2019,17,30,284.7292,284.7292,84.78837,136.69114,-999.00,-0.91,-999.0,no,yes,no,300234065980580,GPS,TUT,MOSAiC,North
2019-10-11T18:29:57Z,1570818597,2019,18,30,284.7708,284.7708,84.78714,136.71977,-999.00,-0.92,-999.0,no,yes,no,300234065980580,GPS,TUT,MOSAiC,North
2019-10-11T19:30:00Z,1570822200,2019,19,30,284.8125,284.8125,84.7839,136.76954,-999.00,-0.96,-999.0,no,yes,no,300234065980580,GPS,TUT,MOSAiC,North
2019-10-11T20:30:02Z,1570825803,2019,20,30,284.8542,284.8542,84.7839,136.76955,-999.00,-0.94,-999.0,no,yes,no,300234065980580,GPS,TUT,MOSAiC,North
2019-10-11T21:29:57Z,1570829397,2019,21,30,284.8958,284.8958,84.78116,136.79583,-999.00,-0.91,-999.0,no,yes,no,300234065980580,GPS,TUT,MOSAiC,North
2019-10-11T22:30:00Z,1570833000,2019,22,30,284.9375,284.9375,84.78088,136.7968,-999.00,-0.88,-999.0,no,yes,no,300234065980580,GPS,TUT,MOSAiC,North
2019-10-12T00:29:57Z,1570840197,2019,0,30,285.0208,285.0208,84.78165,136.79108,-999.00,-0.82,-999.0,no,yes,no,300234065980580,GPS,TUT,MOSAiC,North
2019-10-12T01:30:00Z,1570843800,2019,1,30,285.0625,285.0625,84.80724,136.7792,-999.00,-0.76,-999.0,no,yes,no,300234065980580,GPS,TUT,MOSAiC,North
2019-10-12T02:30:02Z,1570847403,2019,2,30,285.1042,285.1042,84.78677,136.78203,-999.00,-0.81,-999.0,no,yes,no,300234065980580,GPS,TUT,MOSAiC,North
2019-10-12T03:29:57Z,1570850997,2019,3,30,285.1458,285.1458,84.78677,136.78203,-999.00,-0.79,-999.0,no,yes,no,300234065980580,GPS,TUT,MOSAiC,North
2019-10-12T04:30:00Z,1570854600,2019,4,30,285.1875,285.1875,84.79494,136.79168,-999.00,-0.8,-999.0,no,yes,no,300234065980580,GPS,TUT,MOSAiC,North
2019-10-12T05:30:02Z,1570858203,2019,5,30,285.2292,285.2292,84.79883,136.79584,-999.00,-0.8,-999.0,no,yes,no,300234065980580,GPS,TUT,MOSAiC,North
2019-10-12T06:29:57Z,1570861797,2019,6,30,285.2708,285.2708,84.79883,136.79584,-999.00,-0.78,-999.0,no,yes,no,300234065980580,GPS,TUT,MOSAiC,North
2019-10-12T07:30:00Z,1570865400,2019,7,30,285.3125,285.3125,84.80524,136.79018,-999.00,-0.76,-999.0,no,yes,no,300234065980580,GPS,TUT,MOSAiC,North
2019-10-12T08:30:02Z,1570869003,2019,8,30,285.3542,285.3542,84.80724,136.7792,-999.00,-0.75,-999.0,no,yes,no,300234065980580,GPS,TUT,MOSAiC,North
2019-10-12T09:29:57Z,1570872597,2019,9,30,285.3958,285.3958,84.80903,136.74788,-999.00,-0.77,-999.0,no,yes,no,300234065980580,GPS,TUT,MOSAiC,North
2019-10-12T10:30:00Z,1570876200,2019,10,30,285.4375,285.4375,84.80945,136.73316,-999.00,-0.84,-999.0,no,yes,no,300234065980580,GPS,TUT,MOSAiC,North
2019-10-12T11:30:02Z,1570879803,2019,11,30,285.4792,285.4792,84.80945,136.73316,-999.00,-0.79,-999.0,no,yes,no,300234065980580,GPS,TUT,MOSAiC,North
2019-10-12T12:29:57Z,1570883397,2019,12,30,285.5208,285.5208,84.81142,136.64768,-999.00,-0.89,-999.0,no,yes,no,300234065980580,GPS,TUT,MOSAiC,North
2019-10-12T13:30:00Z,1570887000,2019,13,30,285.5625,285.5625,84.8128,136.59726,-999.00,-0.93,-999.0,no,yes,no,300234065980580,GPS,TUT,MOSAiC,North
2019-10-12T23:30:02Z,1570923003,2019,23,30,285.9792,285.9792,84.78165,136.79108,-999.00,-0.85,-999.0,no,yes,no,300234065980580,GPS,TUT,MOSAiC,North
2019-10-12T23:30:02Z,1570923003,2019,23,30,285.9792,285.9792,84.81584,136.29865,-999.00,-1.06,-999.0,no,yes,no,300234065980580,GPS,TUT,MOSAiC,North
2019-10-13T00:29:57Z,1570926597,2019,0,30,286.0208,286.0208,84.8148,136.19973,-999.00,-1.02,-999.0,no,yes,no,300234065980580,GPS,TUT,MOSAiC,North
2019-10-13T01:30:00Z,1570930200,2019,1,30,286.0625,286.0625,84.8148,136.1489,-999.00,-1.08,-999.0,no,yes,no,300234065980580,GPS,TUT,MOSAiC,North
2019-10-13T02:30:02Z,1570933803,2019,2,30,286.1042,286.1042,84.8148,136.14889,-999.00,-1.18,-999.0,no,yes,no,300234065980580,GPS,TUT,MOSAiC,North
2019-10-13T03:29:57Z,1570937397,2019,3,30,286.1458,286.1458,84.81517,136.0625,-999.00,-1.27,-999.0,no,yes,no,300234065980580,GPS,TUT,MOSAiC,North
2019-10-13T04:30:00Z,1570941000,2019,4,30,286.1875,286.1875,84.81489,136.02921,-999.00,-1.32,-999.0,no,yes,no,300234065980580,GPS,TUT,MOSAiC,North
2019-10-13T05:30:02Z,1570944603,2019,5,30,286.2292,286.2292,84.81489,136.0292,-999.00,-1.34,-999.0,no,yes,no,300234065980580,GPS,TUT,MOSAiC,North
2019-10-13T06:29:57Z,1570948197,2019,6,30,286.2708,286.2708,84.81281,135.97613,-999.00,-1.34,-999.0,no,yes,no,300234065980580,GPS,TUT,MOSAiC,North
2019-10-13T07:30:00Z,1570951800,2019,7,30,286.3125,286.3125,84.81114,135.94998,-999.00,-1.37,-999.0,no,yes,no,300234065980580,GPS,TUT,MOSAiC,North
2019-10-13T08:30:02Z,1570955403,2019,8,30,286.3542,286.3542,84.80929,135.92192,-999.00,-1.47,-999.0,no,yes,no,300234065980580,GPS,TUT,MOSAiC,North
2019-10-13T09:29:57Z,1570958997,2019,9,30,286.3958,286.3958,84.80929,135.92192,-999.00,-1.43,-999.0,no,yes,no,300234065980580,GPS,TUT,MOSAiC,North
2019-10-13T10:30:00Z,1570962600,2019,10,30,286.4375,286.4375,84.80539,135.85834,-999.00,-1.52,-999.0,no,yes,no,300234065980580,GPS,TUT,MOSAiC,North
2019-10-13T11:30:02Z,1570966203,2019,11,30,286.4792,286.4792,84.80538,135.85832,-999.00,-1.55,-999.0,no,yes,no,300234065980580,GPS,TUT,MOSAiC,North
2019-10-13T12:29:57Z,1570969797,2019,12,30,286.5208,286.5208,84.80188,135.797,-999.00,-1.58,-999.0,no,yes,no,300234065980580,GPS,TUT,MOSAiC,North
2019-10-13T13:30:00Z,1570973400,2019,13,30,286.5625,286.5625,84.80019,135.77734,-999.00,-1.58,-999.0,no,yes,no,300234065980580,GPS,TUT,MOSAiC,North
2019-10-13T14:30:02Z,1570977003,2019,14,30,286.6042,286.6042,84.80019,135.77734,-999.00,-1.56,-999.0,no,yes,no,300234065980580,GPS,TUT,MOSAiC,North
2019-10-13T15:29:57Z,1570980597,2019,15,30,286.6458,286.6458,84.79688,135.76376,-999.00,-1.55,-999.0,no,yes,no,300234065980580,GPS,TUT,MOSAiC,North
2019-10-13T16:30:00Z,1570984200,2019,16,30,286.6875,286.6875,84.79688,135.76376,-999.00,-1.52,-999.0,no,yes,no,300234065980580,GPS,TUT,MOSAiC,North
2019-10-13T17:30:02Z,1570987803,2019,17,30,286.7292,286.7292,84.7914,135.78642,-999.00,-1.49,-999.0,no,yes,no,300234065980580,GPS,TUT,MOSAiC,North
2019-10-13T18:29:57Z,1570991397,2019,18,30,286.7708,286.7708,84.78707,135.80174,-999.00,-1.46,-999.0,no,yes,no,300234065980580,GPS,TUT,MOSAiC,North
2019-10-13T19:30:00Z,1570995000,2019,19,30,286.8125,286.8125,84.78198,135.80998,-999.00,-1.43,-999.0,no,yes,no,300234065980580,GPS,TUT,MOSAiC,North
2019-10-13T20:30:02Z,1570998603,2019,20,30,286.8542,286.8542,84.78198,135.80998,-999.00,-1.38,-999.0,no,yes,no,300234065980580,GPS,TUT,MOSAiC,North
2019-10-13T21:29:57Z,1571002197,2019,21,30,286.8958,286.8958,84.77193,135.78903,-999.00,-1.34,-999.0,no,yes,no,300234065980580,GPS,TUT,MOSAiC,North
2019-10-13T22:30:00Z,1571005800,2019,22,30,286.9375,286.9375,84.76695,135.76148,-999.00,-1.31,-999.0,no,yes,no,300234065980580,GPS,TUT,MOSAiC,North
2019-10-13T23:30:02Z,1571009403,2019,23,30,286.9792,286.9792,84.75873,135.68444,-999.00,-1.27,-999.0,no,yes,no,300234065980580,GPS,TUT,MOSAiC,North
2019-10-14T00:29:57Z,1571012997,2019,0,30,287.0208,287.0208,84.75873,135.68443,-999.00,-1.25,-999.0,no,yes,no,300234065980580,GPS,TUT,MOSAiC,North
2019-10-14T01:30:00Z,1571016600,2019,1,30,287.0625,287.0625,84.73573,135.51003,-999.00,-1.28,-999.0,no,yes,no,300234065980580,GPS,TUT,MOSAiC,North
2019-10-14T02:30:02Z,1571020203,2019,2,30,287.1042,287.1042,84.75265,135.61434,-999.00,-1.25,-999.0,no,yes,no,300234065980580,GPS,TUT,MOSAiC,North
2019-10-14T03:29:57Z,1571023797,2019,3,30,287.1458,287.1458,84.75265,135.61432,-999.00,-1.24,-999.0,no,yes,no,300234065980580,GPS,TUT,MOSAiC,North
2019-10-14T04:30:00Z,1571027400,2019,4,30,287.1875,287.1875,84.74707,135.56742,-999.00,-1.23,-999.0,no,yes,no,300234065980580,GPS,TUT,MOSAiC,North
2019-10-14T05:30:02Z,1571031003,2019,5,30,287.2292,287.2292,84.74436,135.54972,-999.00,-1.23,-999.0,no,yes,no,300234065980580,GPS,TUT,MOSAiC,North
2019-10-14T06:29:57Z,1571034597,2019,6,30,287.2708,287.2708,84.74436,135.54972,-999.00,-1.24,-999.0,no,yes,no,300234065980580,GPS,TUT,MOSAiC,North
2019-10-14T07:30:00Z,1571038200,2019,7,30,287.3125,287.3125,84.73884,135.52303,-999.00,-1.25,-999.0,no,yes,no,300234065980580,GPS,TUT,MOSAiC,North
2019-10-14T08:30:02Z,1571041803,2019,8,30,287.3542,287.3542,84.73573,135.51003,-999.00,-1.27,-999.0,no,yes,no,300234065980580,GPS,TUT,MOSAiC,North
2019-10-14T09:29:57Z,1571045397,2019,9,30,287.3958,287.3958,84.73063,135.4848,-999.00,-1.29,-999.0,no,yes,no,300234065980580,GPS,TUT,MOSAiC,North
2019-10-14T10:30:00Z,1571049000,2019,10,30,287.4375,287.4375,84.72902,135.47377,-999.00,-1.27,-999.0,no,yes,no,300234065980580,GPS,TUT,MOSAiC,North
2019-10-14T11:30:02Z,1571052603,2019,11,30,287.4792,287.4792,84.72613,135.44814,-999.00,-1.22,-999.0,no,yes,no,300234065980580,GPS,TUT,MOSAiC,North
2019-10-14T12:29:57Z,1571056197,2019,12,30,287.5208,287.5208,84.72613,135.44814,-999.00,-1.19,-999.0,no,yes,no,300234065980580,GPS,TUT,MOSAiC,North
2019-10-14T13:30:00Z,1571059800,2019,13,30,287.5625,287.5625,84.7223,135.3929,-999.00,-1.22,-999.0,no,yes,no,300234065980580,GPS,TUT,MOSAiC,North
2019-10-14T14:30:02Z,1571063403,2019,14,30,287.6042,287.6042,84.72087,135.36095,-999.00,-1.31,-999.0,no,yes,no,300234065980580,GPS,TUT,MOSAiC,North
2019-10-14T15:29:57Z,1571066997,2019,15,30,287.6458,287.6458,84.72057,135.35407,-999.00,-1.32,-999.0,no,yes,no,300234065980580,GPS,TUT,MOSAiC,North
2019-10-14T16:30:00Z,1571070600,2019,16,30,287.6875,287.6875,84.72007,135.34698,-999.00,-1.37,-999.0,no,yes,no,300234065980580,GPS,TUT,MOSAiC,North